Change the Weather History Date:

Wednesday, April 10, 2013

  Actual Average (KLTS) Record (KLTS)
Temperature  
Mean Temperature 38 °F -  
Max Temperature 46 °F 70 °F 90 °F (2014)
Min Temperature 30 °F 45 °F 28 °F (2013)
Degree Days  
Heating Degree Days 27    
Moisture  
Dew Point 29 °F    
Average Humidity 78    
Maximum Humidity 89    
Minimum Humidity 54    
Precipitation  
Precipitation 0.31 in - - ()
Sea Level Pressure  
Sea Level Pressure 29.98 in    
Wind  
Wind Speed 22 mph (NNW)    
Max Wind Speed 31 mph    
Max Gust Speed 39 mph    
Visibility 8 miles    
Events Rain , Thunderstorm    
Averages and records for this station are not official NWS values.
T = Trace of Precipitation, MM = Missing Value Source: NWS Daily Summary

Daily Weather History Graph

Daily Weather History Graph

Search for Another Location

Airport or City:

Trip Planner

Search our weather history database for the weather conditions in past years. The results will help you decide how hot, cold, wet, or windy it might be!

Date:

Astronomy

Apr. 10, 2013 Rise Set
Actual Time 7:10 AM CDT 8:04 PM CDT
Civil Twilight 6:45 AM CDT 8:29 PM CDT
Nautical Twilight 6:14 AM CDT 9:00 PM CDT
Astronomical Twilight 5:43 AM CDT 9:31 PM CDT
Moon 7:09 AM CDT (4/10) 8:38 PM CDT (4/10)
Length of Visible Light 13h 44m
Length of Day
12h 53m
New Moon, 0% of the Moon is Illuminated
Apr 10
New Moon
Apr 18
First Quarter
Apr 25
Full
May 2
Last Quarter
May 9
New

Hourly Weather History & Observations

Time (CDT) Temp. Windchill Dew Point Humidity Pressure Visibility Wind Dir Wind Speed Gust Speed Precip Events Conditions
3:44 AM 33.8 °F 20.5 °F 30.2 °F 87% 29.90 in 9.0 mi NNW 27.6 mph 34.5 mph 0.06 in Rain , Thunderstorm Light Freezing Rain
3:50 AM 33.8 °F 20.3 °F 30.2 °F 87% 29.86 in 9.0 mi NNW 28.8 mph 35.7 mph 0.07 in Rain Light Freezing Rain
3:53 AM 33.1 °F 19.1 °F 30.0 °F 89% 29.87 in 8.0 mi NNW 29.9 mph 38.0 mph 0.07 in Rain Rain
4:02 AM 33.8 °F 21.3 °F 28.4 °F 81% 29.91 in 6.0 mi NNW 24.2 mph 34.5 mph 0.01 in Rain Light Freezing Rain
4:05 AM 33.8 °F 21.0 °F 30.2 °F 87% 29.90 in 7.0 mi NNW 25.3 mph 34.5 mph 0.01 in Rain Light Freezing Rain
4:26 AM 33.8 °F 22.2 °F 28.4 °F 81% 30.01 in 8.0 mi NW 20.7 mph 33.4 mph 0.03 in Rain Rain
4:29 AM 33.8 °F 22.5 °F 28.4 °F 81% 30.04 in 7.0 mi WNW 19.6 mph 33.4 mph 0.04 in Rain , Thunderstorm Light Freezing Rain
5:18 AM 32.0 °F 20.1 °F 28.4 °F 87% 29.99 in 10.0 mi NNW 19.6 mph 33.4 mph 0.00 in Rain Light Freezing Rain
5:28 AM 32.0 °F 21.6 °F 28.4 °F 87% 30.01 in 6.0 mi NNW 15.0 mph 34.5 mph 0.02 in Rain Light Freezing Rain
5:44 AM 32.0 °F 20.8 °F 28.4 °F 87% 29.97 in 5.0 mi NNW 17.3 mph 21.9 mph 0.08 in Rain Light Freezing Rain
5:53 AM 32.0 °F 18.4 °F 28.9 °F 88% 29.91 in 4.0 mi North 26.5 mph 38.0 mph 0.12 in Rain Light Freezing Rain
6:00 AM 32.0 °F 17.4 °F 28.4 °F 87% 29.90 in 6.0 mi North 31.1 mph 39.1 mph 0.00 in Rain Light Freezing Rain
6:29 AM 32.0 °F 19.5 °F 28.4 °F 87% 29.97 in 7.0 mi NNW 21.9 mph 32.2 mph 0.02 in Rain Light Freezing Rain
6:39 AM 32.0 °F 19.2 °F 28.4 °F 87% 29.98 in 8.0 mi NNW 23.0 mph 29.9 mph 0.02 in Rain Light Freezing Rain
6:50 AM 32.0 °F 18.6 °F 28.4 °F 87% 29.97 in 9.0 mi NNW 25.3 mph 31.1 mph 0.03 in Rain Light Freezing Rain
6:51 AM 32.0 °F 18.6 °F 28.0 °F 85% 29.98 in 9.0 mi NNW 25.3 mph 31.1 mph 0.03 in Rain Light Freezing Rain
7:09 AM 30.2 °F 17.4 °F 26.6 °F 86% 30.00 in 9.0 mi NNW 20.7 mph 34.5 mph 0.01 in Rain Light Freezing Rain
7:26 AM 32.0 °F 19.8 °F 28.4 °F 87% 29.99 in 5.0 mi NNW 20.7 mph 27.6 mph 0.04 in Rain Light Freezing Rain
7:45 AM 32.0 °F 18.6 °F 28.4 °F 87% 29.96 in 8.0 mi NNW 25.3 mph 33.4 mph 0.06 in Rain Light Freezing Rain
7:53 AM 32.0 °F 19.5 °F 28.0 °F 85% 30.01 in 6.0 mi NNW 21.9 mph 33.4 mph 0.07 in Rain Light Freezing Rain
8:04 AM 30.2 °F 16.8 °F 26.6 °F 86% 30.01 in 8.0 mi NNW 23.0 mph 32.2 mph 0.01 in Rain Light Freezing Rain
8:08 AM 30.2 °F 16.2 °F 26.6 °F 86% 30.01 in 8.0 mi NNW 25.3 mph 32.2 mph 0.01 in Rain Light Freezing Rain
8:16 AM 30.2 °F 17.8 °F 26.6 °F 86% 30.01 in 7.0 mi NNW 19.6 mph 31.1 mph 0.01 in Rain Light Freezing Rain
8:35 AM 30.2 °F 17.1 °F 26.6 °F 86% 30.01 in 8.0 mi NNW 21.9 mph - 0.02 in Rain Light Freezing Rain
8:53 AM 30.9 °F 18.4 °F 26.1 °F 82% 30.06 in 10.0 mi NNW 20.7 mph 28.8 mph 0.02 in Rain Light Freezing Rain
9:53 AM 30.0 °F 15.7 °F 25.0 °F 82% 30.03 in 10.0 mi NNW 26.5 mph 32.2 mph 0.00 in Rain Light Freezing Rain
10:00 AM 30.2 °F 16.5 °F 24.8 °F 80% 30.03 in 10.0 mi NNW 24.2 mph 31.1 mph 0.00 in Rain , Thunderstorm Light Freezing Rain
10:15 AM 30.2 °F 17.8 °F 24.8 °F 80% 30.06 in 10.0 mi NNW 19.6 mph 29.9 mph 0.00 in Rain Light Freezing Rain
11:53 AM 33.1 °F 20.1 °F 27.0 °F 78% 30.06 in 10.0 mi NNW 25.3 mph 31.1 mph N/A   Overcast
12:53 PM 36.0 °F 25.3 °F 28.9 °F 76% 30.04 in 10.0 mi North 19.6 mph 27.6 mph N/A   Overcast
1:53 PM 39.0 °F 29.0 °F 30.0 °F 70% 30.03 in 10.0 mi NNW 20.7 mph 28.8 mph N/A   Overcast
2:53 PM 41.0 °F 32.2 °F 30.9 °F 67% 30.00 in 10.0 mi NNW 18.4 mph 26.5 mph N/A   Mostly Cloudy
3:11 PM 42.8 °F 34.8 °F 30.2 °F 61% 29.97 in 10.0 mi NNW 17.3 mph 28.8 mph N/A   Scattered Clouds
3:53 PM 43.0 °F 35.4 °F 33.1 °F 68% 29.97 in 10.0 mi North 16.1 mph 23.0 mph N/A   Mostly Cloudy
4:15 PM 44.6 °F 37.2 °F 32.0 °F 61% 29.95 in 10.0 mi NNW 17.3 mph 24.2 mph N/A   Scattered Clouds
4:53 PM 46.0 °F 39.6 °F 32.0 °F 58% 29.94 in 10.0 mi NNW 15.0 mph - N/A   Partly Cloudy
5:53 PM 46.0 °F 39.6 °F 30.9 °F 56% 29.92 in 10.0 mi North 15.0 mph - N/A   Clear
6:53 PM 46.0 °F 41.0 °F 30.0 °F 54% 29.94 in 10.0 mi NNW 10.4 mph - N/A   Clear
7:53 PM 45.0 °F 40.6 °F 30.9 °F 58% 29.95 in 10.0 mi NNW 8.1 mph - N/A   Clear
8:53 PM 41.0 °F 37.1 °F 32.0 °F 70% 29.97 in 10.0 mi NNW 5.8 mph - N/A   Clear
9:53 PM 41.0 °F - 32.0 °F 70% 29.99 in 10.0 mi Calm Calm - N/A   Clear
10:53 PM 39.9 °F 35.8 °F 30.9 °F 70% 29.99 in 10.0 mi North 5.8 mph - N/A   Clear
11:53 PM 39.0 °F 33.4 °F 30.0 °F 70% 29.96 in 10.0 mi NNW 8.1 mph - N/A   Clear